Regional Weather Roundup
Issued by NWS Upton, NY

Current Version | Previous Version | Text Only | Print | Product List | Glossary Off
Versions: 1 2 3 4 5 6 7 8 9 10 11 12 13 14 15 16 17 18 19 20 21 22 23 24 25 26 27 28 29 30 31 32 33 34 35 36 37 38 39 40 41 42 43 44 45 46 47 48 49 50

000
ASUS41 KOKX 051208
RWROKX

REGIONAL WEATHER ROUNDUP
NATIONAL WEATHER SERVICE NEW YORK NY
800 AM EDT TUE MAY 05 2015

NOTE: "FAIR" INDICATES FEW OR NO CLOUDS BELOW 12,000 FEET WITH NO
SIGNIFICANT WEATHER AND/OR OBSTRUCTIONS TO VISIBILITY.

NYZ071-072-176-178-NJZ106-104-051300-
NEW YORK CITY METRO AREA


CITY           SKY/WX    TMP DP  RH WIND       PRES   REMARKS
CENTRAL PARK   SUNNY     69  49  48 W6        30.22R
LAGUARDIA APRT MOSUNNY   70  49  47 CALM      30.19R
KENNEDY INTL   MOSUNNY   65  50  58 SW6       30.20R
NEWARK/LIBERTY MOSUNNY   69  51  52 SW3       30.19R
BRNX BOT. GARD   N/A     70  50  49 SW3       30.20S
TETERBORO      SUNNY     67  50  54 CALM      30.18R
$$

NYZ177-179-078>081-051300-
LONG ISLAND NEW YORK

CITY           SKY/WX    TMP DP  RH WIND       PRES   REMARKS
FARMINGDALE    SUNNY     62  51  67 W3        30.20R
ISLIP          PTSUNNY   61  51  70 SW5       30.18R
SHIRLEY        SUNNY     61  51  70 SW6       30.20R
WESTHAMPTON    SUNNY     59  51  75 SW6       30.21R
MONTAUK POINT    N/A     59  50  72 VRB3      30.20R
$$

NYZ052-065-067-051300-
HUDSON VALLEY

CITY           SKY/WX    TMP DP  RH WIND       PRES   REMARKS
WHITE PLAINS   MOSUNNY   68  51  54 NW6       30.18R
NEWBURGH       PTSUNNY   66  54  63 VRB6      30.22R
MONTGOMERY     CLOUDY    66  54  65 NE7       30.20R
POUGHKEEPSIE   PTSUNNY   66  53  63 N3        30.20R
ALBANY         PTSUNNY   66  53  63 NW10      30.22R
$$

NJZ001-105-106-008-010-013-015-019>022-104-051300-
NEW JERSEY

CITY           SKY/WX    TMP DP  RH WIND       PRES   REMARKS
NEWARK/LIBERTY MOSUNNY   69  51  52 SW3       30.19R
TETERBORO      SUNNY     67  50  54 CALM      30.18R
CALDWELL       MOSUNNY   65  50  58 CALM      30.20R
MORRISTOWN     NOT AVBL
SOMERVILLE     SUNNY     62  49  62 CALM      30.19R
SUSSEX         PTSUNNY   59  49  69 SW3       30.23R
ANDOVER          N/A     62  53  72 CALM      30.22R
TRENTON        SUNNY     65  52  62 W5        30.21R
MILLVILLE      SUNNY     67  55  65 W8        30.24R
ATLANTIC CITY  SUNNY     68  54  60 W13       30.23R
WRIGHTSTOWN    SUNNY     66  54  63 W9        30.19R
TOMS RIVER     SUNNY     68  54  60 CALM      30.20R
BELMAR         SUNNY     66  50  55 W12       30.21R
$$

PAZ047>061-062-071-051300-
EASTERN PENNSYLVANIA

CITY           SKY/WX    TMP DP  RH WIND       PRES   REMARKS
PHILADELPHIA   PTSUNNY   66  54  65 W10       30.23R
ALLENTOWN      PTSUNNY   64  53  67 CALM      30.22R
SCRANTON       MOSUNNY   66  55  67 VRB7      30.24R
$$

CTZ002-004>006-009-010-012-RIZ004-006-007-MAZ004-011-015-051300-
SOUTHERN NEW ENGLAND
 IN CT

CITY           SKY/WX    TMP DP  RH WIND       PRES   REMARKS
BRADLEY INTL   CLOUDY    66  49  54 CALM      30.18R
HARTFORD       PTSUNNY   65  48  54 S3        30.18R
DANBURY        MOSUNNY   65  49  56 SW3       30.21R
WTRBRY/OXFORD  NOT AVBL
BRIDGEPORT     SUNNY     62  51  67 SW3       30.19R
MERIDEN        PTSUNNY   65  48  54 CALM      30.19R
NEW HAVEN      MOSUNNY   64  50  60 CALM      30.19R
CHESTER        FAIR      63  48  59 CALM      30.20R
GROTON         MOSUNNY   59  49  69 SW5       30.19R
WILLIMANTIC    PTSUNNY   65  48  54 CALM      30.19R

 IN RI

CITY           SKY/WX    TMP DP  RH WIND       PRES   REMARKS
PROVIDENCE     PTSUNNY   65  47  52 W5        30.18R
BLOCK ISLAND   SUNNY     55  46  71 W18       30.20R
WESTERLY       MOSUNNY   61  48  62 SW6       30.20R

 IN MA

CITY           SKY/WX    TMP DP  RH WIND       PRES   REMARKS
BOSTON         CLOUDY    68  48  48 W8        30.16R
WORCESTER      LGT RAIN  59  53  80 W9        30.20R
WESTFIELD      CLOUDY    67  52  58 NW8       30.18R
PROVINCETOWN   CLOUDY    54  45  71 SW8       30.17R
NANTUCKET      MOSUNNY   55  47  74 SW15      30.20R
$$

ANZ330-335-338-340-345-350-353-355-051300-
COASTAL MARINE OBSERVATIONS


STATION/POSITION TIME  SKY/WX   TEMP    WIND        PRES    VSBY  WAVE
                                AIR SEA DIR/SP/G                  HT/PER
                 (UTC)          (F)     (DEG/KT/KT) (MB)    (MI)  (FT/S)
NY HARB ENTRANCE 1150            53 50  200/  8/ 10 1022.2          3/ 5
4S FIRE IS       1103               49                N/A           4/ 5
20S FIRE ISLAND  1150            52 48  220/ 12/ 14 1022.6          4/ 6
GREAT SOUTH BAY  1100            55 59  250/ 10/ 14   N/A
23SW MTP         1150            50 46  240/ 10/ 10 1022.4          4/ 5
HUDSON CANYON    NOT AVBL
KINGS POINT      1100            63 53  180/  3/  5 1020.9
EASTERN LI SOUND 1100            51     290/  4/  6   N/A
ROBBINS REEF     1100            64     260/  4/  4 1020.7
$$


>>>>>>>>>>>>>>>>>>>>>>>>>>>> KEY <<<<<<<<<<<<<<<<<<<<<<<<<<<
>                                                          <
>     SKY/WX - SKY CONDITION/PRESENT WEATHER               <
>     TMP    - TEMPERATURE IN FAHRENHEIT                   <
>     DP     - DEWPOINT IN FAHRENHEIT                      <
>     RH     - RELATIVE HUMIDITY IN PERCENT                <
>     WIND   - DIRECTION AND SPEED IN MPH                  <
>     PRES   - MEAN SEA LEVEL PRESSURE IN INCHES OF HG     <
>     WCI    - WIND CHILL INDEX                            <
>     VSB    - VISIBILITY IN MILES                         <
>     HX     - HEAT INDEX                                  <
>     TC     - TEMPERATURE IN CELSIUS                      <
>     VRB    - VARIABLE WIND DIRECTION                     <
>                                                          <
>>>>>>>>>>>>>>>>>>>>>>>>>>>> KEY <<<<<<<<<<<<<<<<<<<<<<<<<<<




USA.gov is the U.S. government's official web portal to all federal, state and local government web resources and services.